THOR ABLESTAR DEB, 122

Orbit data source: Space-Track

THOR ABLESTAR DEB, 122 is space debris in LEO originally from a launch on Thu, 29 Jun 1961 UTC launched from the Air Force Eastern Test Range (AFETR). Debris objects in space refer to the collection of defunct objects orbiting the Earth. Examples of debris include non-operational satellites, rocket bodies, and fragments generated from explosions, collisions, or faulty payload assembly.

Loading next visibility...
Identifier
122, 1961-015G
Orbit
LEO
Country
Flag of USUS
Related business
Manufacturer
Unknown
Mission
Spacecraft
Bus & Motor
Unknown
Mass
Unknown
Launch date (UTC)
1961-06-29 (65 years ago)
Launch vehicle
Unknown
Launch site
Air Force Eastern Test Range (AFETR)
Object type
Payload
Rocket body
Debris
Shape & HBR
Unknown shape, 0.5 m
Radar Cross Section
Medium (>0.1 m² and <1 m²)

Expand to show TLE details & history
Last TLE update: 1 day ago

TLE from 1 day ago
0 THOR ABLESTAR DEB
1 00122U 61015G   26265.94594857  .00006161  00000-0  46742-3 0  9990
2 00122  66.7379 256.9328 0029953 131.0833 229.2897 15.02596356408954
Epoch: 2026-09-22T22:42Z
TLE epoch observation values (Epoch: 2026-09-22T22:42:09.956Z)
Latitude
-0.00001°
Longitude
-85.41283°
Altitude
574.664 km
Speed
7.566 km/s
True Right ascension
17h 07m 43s
True Declination
0° 00' 00"
Sunlit
Object was in daylight at epoch
Visualization orbit readout
Latitude
Unknown
Longitude
Unknown
Altitude
Unknown
Speed
Unknown
Apparent Right ascension
Unknown
Apparent Declination
Unknown
Sunlit
N/A
Visualization observer readout
Local Sidereal Time
17:28:58
Azimuth
Unknown
Elevation
Unknown
Doppler factor
Unknown
Orbital elements
Apogee altitude
577.983 km
Perigee altitude
536.436 km
Semi-major axis
6,935.346 km
Eccentricity
0.003
Inclination
66.7379°
RAAN
256.9328°
Arg. of periapsis
131.0833°
True anomaly
229.03016°
Mean anomaly
229.2897°
Eccentric anomaly
229.15986°
Mean motion
3.75786 °/min
Orbital period
95.8 mins
BSTAR
0.00046742
Loading maneuver chart data...
Computing Atmospheric mass density...

Documentation

Showing up to 5 results
|